COSMOS 2251 DEB

Satellite information

Favourite Embed

Satellite Type and Status

DEBRISIN ORBIT

Key statistics

Satellite COSMOS 2251 DEB at a glance.

Uptime

11819

Days in orbit

Revolutions

≈ 14.3

Per day

Orbit

LEO

Low Earth Orbit

Inclination

74.0

Latest

Satellite identification and parameters

Extended collection of information and parameters for COSMOS 2251 DEB.

Object identification

Identified? True

Debris? True

Object name: COSMOS 2251 DEB

International designator: 1993-036K

Object number (NORAD): 33762

Object ID (CCSDS): 33762

Country: COMMONWEALTH OF INDEPENDENT STATES (CIS)

Current information (Y/N): Y

RCS size: SMALL

Orbital parameters

Period: 100.443 minutes

Inclination: 74.0433 deg

SMA: 7157.711 km

Apoapsis: 789.813 km

Periapsis: 769.339 km

RAAN: 39.6091 deg

Eccentricy: 0.00143021

Argument of periapsis: 119.4742 deg

Mean anomaly: 358.7566 deg

Mean motion: 14.33644586 rev/day

Mean motion (dot): 0.00000189 rev/day2

B* drag term: 0.000077297427 1/REarth

Two-line elements (TLE)

Creation date: Oct. 25, 2025, 3:11 a.m.

Reference frame: TEME

Reference center: EARTH

Epoch: Oct. 24, 2025, 5:44 p.m. UTC

TLE line 0: 0 COSMOS 2251 DEB

TLE line 1: 1 33762U 93036K 25297.73900067 .00000189 00000-0 77297-4 0 9993

TLE line 2: 2 33762 74.0433 39.6091 0014302 119.4742 358.7566 14.33644586873451

Live tracking on map

Real-time ground track for satellite COSMOS 2251 DEB.

In-orbit conjunctions

A list of the most updated potential collisions computed for object COSMOS 2251 DEB.

Target Orbit TCA Probability of collision Miss distance Type
FENGYUN 1C DEB SSO 2025-03-30 17:06:51 0.0001037705 89.0 (m) DEBRIS
COSMOS 1503 LEO 2025-01-08 05:55:17 0.000394539 369.0 (m) PAYLOAD
ORBCOMM FM 26 LEO 2024-10-08 14:09:46 0.001800492 443.0 (m) PAYLOAD

Associated space launch

Military communications satellite. Destroyed in a collision with Iridium 33.

COSMOS 2251 DEB was lifted into orbit during the mission ‘Kosmos-3M | Strela-2M 51’, on board a Kosmos-3M space rocket.

The launch took place on June 16, 1993, 4:17 a.m. from 132/1 (132L).

For more information about the launch, click the button.

Launch to space Kosmos-3M | Strela-2M 51
Kosmos-3M | Strela-2M 51

Agency: N/A

Status: Launch Successful

Launch date: June 16, 1993, 4:17 a.m. UTC

Rocket: Kosmos-3M

Launch pad: 132/1 (132L)

Location: Plesetsk Cosmodrome, Russian Federation

...

Latest news about this satellite

There are no fresh news available about this satellite. Check back as we update our databases every day.


Newsletter sign-up

Weekly statistics, charts and insights to help you stay on top of the space industry.